Year,Month,Day,Hour,Minute,Value (Times are PST for temperature in C)
2018,10,24,00,00,10.20
2018,10,24,00,01,10.20
2018,10,24,00,02,10.20
2018,10,24,00,03,10.20
2018,10,24,00,04,10.20
2018,10,24,00,05,10.20
2018,10,24,00,06,10.20
2018,10,24,00,07,10.20
2018,10,24,00,08,10.30
2018,10,24,00,09,10.30
2018,10,24,00,10,10.30
2018,10,24,00,11,10.30
2018,10,24,00,12,10.30
2018,10,24,00,13,10.30
2018,10,24,00,14,10.20
2018,10,24,00,15,10.20
2018,10,24,00,16,10.20
2018,10,24,00,17,10.20
2018,10,24,00,18,10.30
2018,10,24,00,19,10.30
2018,10,24,00,20,10.20
2018,10,24,00,21,10.10
2018,10,24,00,22,10.00
2018,10,24,00,23,9.90
2018,10,24,00,24,9.90
2018,10,24,00,25,9.80
2018,10,24,00,26,9.80
2018,10,24,00,27,9.90
2018,10,24,00,28,9.90
2018,10,24,00,29,9.90
2018,10,24,00,30,9.80
2018,10,24,00,31,9.80
2018,10,24,00,32,9.70
2018,10,24,00,33,9.60
2018,10,24,00,34,9.60
2018,10,24,00,35,9.40
2018,10,24,00,36,9.30
2018,10,24,00,37,9.20
2018,10,24,00,38,9.10
2018,10,24,00,39,9.00
2018,10,24,00,40,8.80
2018,10,24,00,41,8.70
2018,10,24,00,42,8.70
2018,10,24,00,43,8.70
2018,10,24,00,44,8.80
2018,10,24,00,45,8.70
2018,10,24,00,46,8.60
2018,10,24,00,47,8.50
2018,10,24,00,48,8.50
2018,10,24,00,49,8.50
2018,10,24,00,50,8.40
2018,10,24,00,51,8.30
2018,10,24,00,52,8.20
2018,10,24,00,53,8.10
2018,10,24,00,54,8.10
2018,10,24,00,55,8.00
2018,10,24,00,56,8.00
2018,10,24,00,57,8.00
2018,10,24,00,58,8.20
2018,10,24,00,59,8.40
2018,10,24,01,00,8.60
2018,10,24,01,01,8.60
2018,10,24,01,02,8.40
2018,10,24,01,03,8.30
2018,10,24,01,04,8.20
2018,10,24,01,05,8.30
2018,10,24,01,06,8.40
2018,10,24,01,07,8.40
2018,10,24,01,08,8.40
2018,10,24,01,09,8.40
2018,10,24,01,10,8.40
2018,10,24,01,11,8.40
2018,10,24,01,12,8.30
2018,10,24,01,13,8.10
2018,10,24,01,14,8.00
2018,10,24,01,15,8.00
2018,10,24,01,16,8.10
2018,10,24,01,17,8.00
2018,10,24,01,18,8.00
2018,10,24,01,19,8.00
2018,10,24,01,20,7.90
2018,10,24,01,21,7.80
2018,10,24,01,22,7.80
2018,10,24,01,23,7.80
2018,10,24,01,24,7.70
2018,10,24,01,25,7.70
2018,10,24,01,26,7.60
2018,10,24,01,27,7.50
2018,10,24,01,28,7.40
2018,10,24,01,29,7.30
2018,10,24,01,30,7.30
2018,10,24,01,31,7.30
2018,10,24,01,32,7.40
2018,10,24,01,33,7.40
2018,10,24,01,34,7.50
2018,10,24,01,35,7.60
2018,10,24,01,36,7.60
2018,10,24,01,37,7.70
2018,10,24,01,38,7.60
2018,10,24,01,39,7.60
2018,10,24,01,40,7.60
2018,10,24,01,41,7.50
2018,10,24,01,42,7.40
2018,10,24,01,43,7.30
2018,10,24,01,44,7.30
2018,10,24,01,45,7.30
2018,10,24,01,46,7.30
2018,10,24,01,47,7.30
2018,10,24,01,48,7.20
2018,10,24,01,49,7.10
2018,10,24,01,50,6.90
2018,10,24,01,51,6.80
2018,10,24,01,52,6.70
2018,10,24,01,53,6.50
2018,10,24,01,54,6.40
2018,10,24,01,55,6.30
2018,10,24,01,56,6.40
2018,10,24,01,57,6.50
2018,10,24,01,58,6.50
2018,10,24,01,59,6.60
2018,10,24,02,00,6.60
2018,10,24,02,01,6.60
2018,10,24,02,02,6.50
2018,10,24,02,03,6.50
2018,10,24,02,04,6.50
2018,10,24,02,05,6.60
2018,10,24,02,06,6.60
2018,10,24,02,07,6.70
2018,10,24,02,08,6.70
2018,10,24,02,09,6.80
2018,10,24,02,10,6.90
2018,10,24,02,11,7.00
2018,10,24,02,12,7.10
2018,10,24,02,13,7.10
2018,10,24,02,14,7.10
2018,10,24,02,15,6.90
2018,10,24,02,16,6.80
2018,10,24,02,17,6.70
2018,10,24,02,18,6.60
2018,10,24,02,19,6.60
2018,10,24,02,20,6.60
2018,10,24,02,21,6.70
2018,10,24,02,22,6.80
2018,10,24,02,23,6.80
2018,10,24,02,24,6.90
2018,10,24,02,25,7.00
2018,10,24,02,26,7.10
2018,10,24,02,27,7.20
2018,10,24,02,28,7.20
2018,10,24,02,29,7.10
2018,10,24,02,30,7.00
2018,10,24,02,31,6.90
2018,10,24,02,32,6.80
2018,10,24,02,33,6.60
2018,10,24,02,34,6.40
2018,10,24,02,35,6.20
2018,10,24,02,36,6.00
2018,10,24,02,37,5.90
2018,10,24,02,38,5.80
2018,10,24,02,39,5.90
2018,10,24,02,40,5.90
2018,10,24,02,41,5.90
2018,10,24,02,42,6.00
2018,10,24,02,43,6.10
2018,10,24,02,44,6.20
2018,10,24,02,45,6.30
2018,10,24,02,46,6.40
2018,10,24,02,47,6.40
2018,10,24,02,48,6.40
2018,10,24,02,49,6.40
2018,10,24,02,50,6.40
2018,10,24,02,51,6.50
2018,10,24,02,52,6.50
2018,10,24,02,53,6.50
2018,10,24,02,54,6.40
2018,10,24,02,55,6.30
2018,10,24,02,56,6.30
2018,10,24,02,57,6.30
2018,10,24,02,58,6.20
2018,10,24,02,59,6.00
2018,10,24,03,00,5.90
2018,10,24,03,01,5.80
2018,10,24,03,02,5.80
2018,10,24,03,03,5.70
2018,10,24,03,04,5.60
2018,10,24,03,05,5.60
2018,10,24,03,06,5.50
2018,10,24,03,07,5.50
2018,10,24,03,08,5.50
2018,10,24,03,09,5.50
2018,10,24,03,10,5.50
2018,10,24,03,11,5.60
2018,10,24,03,12,5.60
2018,10,24,03,13,5.70
2018,10,24,03,14,5.80
2018,10,24,03,15,5.80
2018,10,24,03,16,6.00
2018,10,24,03,17,6.10
2018,10,24,03,18,6.20
2018,10,24,03,19,6.30
2018,10,24,03,20,6.30
2018,10,24,03,21,6.20
2018,10,24,03,22,6.10
2018,10,24,03,23,6.00
2018,10,24,03,24,5.90
2018,10,24,03,25,6.00
2018,10,24,03,26,6.00
2018,10,24,03,27,6.10
2018,10,24,03,28,6.20
2018,10,24,03,29,6.20
2018,10,24,03,30,6.30
2018,10,24,03,31,6.60
2018,10,24,03,32,6.80
2018,10,24,03,33,6.80
2018,10,24,03,34,6.60
2018,10,24,03,35,6.20
2018,10,24,03,36,6.00
2018,10,24,03,37,5.80
2018,10,24,03,38,5.70
2018,10,24,03,39,5.70
2018,10,24,03,40,5.60
2018,10,24,03,41,5.60
2018,10,24,03,42,5.60
2018,10,24,03,43,5.70
2018,10,24,03,44,5.80
2018,10,24,03,45,5.80
2018,10,24,03,46,6.00
2018,10,24,03,47,6.10
2018,10,24,03,48,6.20
2018,10,24,03,49,6.00
2018,10,24,03,50,5.80
2018,10,24,03,51,5.80
2018,10,24,03,52,5.80
2018,10,24,03,53,5.70
2018,10,24,03,54,5.70
2018,10,24,03,55,5.70
2018,10,24,03,56,5.20
2018,10,24,03,57,5.10
2018,10,24,03,58,5.00
2018,10,24,03,59,4.90
2018,10,24,04,00,5.00
2018,10,24,04,01,5.10
2018,10,24,04,02,5.20
2018,10,24,04,03,5.30
2018,10,24,04,04,5.30
2018,10,24,04,05,5.40
2018,10,24,04,06,5.30
2018,10,24,04,07,5.30
2018,10,24,04,08,5.30
2018,10,24,04,09,5.30
2018,10,24,04,10,5.40
2018,10,24,04,11,5.50
2018,10,24,04,12,5.60
2018,10,24,04,13,5.60
2018,10,24,04,14,5.60
2018,10,24,04,15,5.70
2018,10,24,04,16,5.60
2018,10,24,04,17,5.60
2018,10,24,04,18,5.60
2018,10,24,04,19,5.60
2018,10,24,04,20,5.70
2018,10,24,04,21,5.70
2018,10,24,04,22,5.70
2018,10,24,04,23,5.80
2018,10,24,04,24,5.80
2018,10,24,04,25,5.80
2018,10,24,04,26,5.80
2018,10,24,04,27,5.80
2018,10,24,04,28,5.70
2018,10,24,04,29,5.70
2018,10,24,04,30,5.70
2018,10,24,04,31,5.70
2018,10,24,04,32,5.70
2018,10,24,04,33,5.80
2018,10,24,04,34,5.90
2018,10,24,04,35,6.00
2018,10,24,04,36,5.90
2018,10,24,04,37,5.70
2018,10,24,04,38,5.40
2018,10,24,04,39,4.90
2018,10,24,04,40,4.70
2018,10,24,04,41,4.70
2018,10,24,04,42,4.80
2018,10,24,04,43,4.80
2018,10,24,04,44,5.00
2018,10,24,04,45,5.00
2018,10,24,04,46,5.10
2018,10,24,04,47,5.10
2018,10,24,04,48,5.10
2018,10,24,04,49,5.10
2018,10,24,04,50,5.10
2018,10,24,04,51,5.10
2018,10,24,04,52,5.10
2018,10,24,04,53,5.00
2018,10,24,04,54,4.80
2018,10,24,04,55,4.70
2018,10,24,04,56,4.60
2018,10,24,04,57,4.70
2018,10,24,04,58,4.80
2018,10,24,04,59,5.00
2018,10,24,05,00,5.30
2018,10,24,05,01,5.40
2018,10,24,05,02,5.50
2018,10,24,05,03,6.10
2018,10,24,05,04,6.30
2018,10,24,05,05,6.40
2018,10,24,05,06,6.60
2018,10,24,05,07,6.80
2018,10,24,05,08,6.90
2018,10,24,05,09,6.70
2018,10,24,05,10,6.40
2018,10,24,05,11,6.30
2018,10,24,05,12,6.10
2018,10,24,05,13,5.90
2018,10,24,05,14,5.80
2018,10,24,05,15,5.80
2018,10,24,05,16,5.80
2018,10,24,05,17,5.80
2018,10,24,05,18,5.80
2018,10,24,05,19,5.70
2018,10,24,05,20,5.70
2018,10,24,05,21,5.70
2018,10,24,05,22,5.30
2018,10,24,05,23,5.20
2018,10,24,05,24,5.10
2018,10,24,05,25,5.00
2018,10,24,05,26,4.90
2018,10,24,05,27,5.00
2018,10,24,05,28,5.10
2018,10,24,05,29,5.20
2018,10,24,05,30,5.30
2018,10,24,05,31,5.40
2018,10,24,05,32,5.70
2018,10,24,05,33,5.80
2018,10,24,05,34,5.80
2018,10,24,05,35,5.90
2018,10,24,05,36,6.00
2018,10,24,05,37,6.00
2018,10,24,05,38,6.00
2018,10,24,05,39,6.00
2018,10,24,05,40,6.00
2018,10,24,05,41,5.80
2018,10,24,05,42,5.70
2018,10,24,05,43,5.60
2018,10,24,05,44,5.60
2018,10,24,05,45,5.60
2018,10,24,05,46,5.60
2018,10,24,05,47,5.60
2018,10,24,05,48,5.60
2018,10,24,05,49,5.60
2018,10,24,05,50,5.60
2018,10,24,05,51,5.70
2018,10,24,05,52,5.80
2018,10,24,05,53,5.70
2018,10,24,05,54,5.70
2018,10,24,05,55,5.60
2018,10,24,05,56,5.60
2018,10,24,05,57,5.40
2018,10,24,05,58,5.30
2018,10,24,05,59,5.30
2018,10,24,06,00,5.40
2018,10,24,06,01,5.60
2018,10,24,06,02,5.60
2018,10,24,06,03,5.70
2018,10,24,06,04,5.70
2018,10,24,06,05,5.70
2018,10,24,06,06,5.70
2018,10,24,06,07,5.70
2018,10,24,06,08,5.50
2018,10,24,06,09,5.50
2018,10,24,06,10,5.30
2018,10,24,06,11,5.30
2018,10,24,06,12,5.30
2018,10,24,06,13,5.30
2018,10,24,06,14,5.20
2018,10,24,06,15,5.10
2018,10,24,06,16,5.10
2018,10,24,06,17,5.10
2018,10,24,06,18,5.20
2018,10,24,06,19,5.30
2018,10,24,06,20,5.40
2018,10,24,06,21,5.50
2018,10,24,06,22,5.60
2018,10,24,06,23,5.80
2018,10,24,06,24,6.00
2018,10,24,06,25,6.00
2018,10,24,06,26,6.20
2018,10,24,06,27,6.30
2018,10,24,06,28,6.30
2018,10,24,06,29,6.50
2018,10,24,06,30,6.30
2018,10,24,06,31,6.00
2018,10,24,06,32,5.70
2018,10,24,06,33,5.40
2018,10,24,06,34,5.30
2018,10,24,06,35,5.10
2018,10,24,06,36,4.90
2018,10,24,06,37,4.80
2018,10,24,06,38,4.80
2018,10,24,06,39,4.60
2018,10,24,06,40,4.70
2018,10,24,06,41,4.70
2018,10,24,06,42,4.70
2018,10,24,06,43,4.60
2018,10,24,06,44,4.60
2018,10,24,06,45,4.60
2018,10,24,06,46,4.60
2018,10,24,06,47,4.60
2018,10,24,06,48,4.60
2018,10,24,06,49,4.60
2018,10,24,06,50,4.70
2018,10,24,06,51,4.80
2018,10,24,06,52,4.80
2018,10,24,06,53,4.90
2018,10,24,06,54,5.00
2018,10,24,06,55,5.10
2018,10,24,06,56,5.10
2018,10,24,06,57,5.20
2018,10,24,06,58,5.30
2018,10,24,06,59,5.10
2018,10,24,07,00,5.10
2018,10,24,07,01,5.00
2018,10,24,07,02,5.00
2018,10,24,07,03,5.00
2018,10,24,07,04,5.10
2018,10,24,07,05,5.10
2018,10,24,07,06,5.10
2018,10,24,07,07,4.80
2018,10,24,07,08,4.60
2018,10,24,07,09,4.50
2018,10,24,07,10,4.50
2018,10,24,07,11,4.60
2018,10,24,07,12,4.70
2018,10,24,07,13,4.70
2018,10,24,07,14,4.70
2018,10,24,07,15,4.70
2018,10,24,07,16,4.70
2018,10,24,07,17,4.70
2018,10,24,07,18,4.70
2018,10,24,07,19,4.80
2018,10,24,07,20,4.80
2018,10,24,07,21,4.70
2018,10,24,07,22,4.60
2018,10,24,07,23,4.50
2018,10,24,07,24,4.50
2018,10,24,07,25,4.50
2018,10,24,07,26,4.50
2018,10,24,07,27,4.60
2018,10,24,07,28,4.60
2018,10,24,07,29,4.70
2018,10,24,07,30,4.70
2018,10,24,07,31,4.70
2018,10,24,07,32,4.70
2018,10,24,07,33,4.60
2018,10,24,07,34,4.50
2018,10,24,07,35,4.50
2018,10,24,07,36,4.60
2018,10,24,07,37,4.70
2018,10,24,07,38,4.80
2018,10,24,07,39,4.80
2018,10,24,07,40,4.90
2018,10,24,07,41,4.90
2018,10,24,07,42,4.80
2018,10,24,07,43,4.70
2018,10,24,07,44,4.50
2018,10,24,07,45,4.40
2018,10,24,07,46,4.20
2018,10,24,07,47,4.10
2018,10,24,07,48,4.00
2018,10,24,07,49,3.90
2018,10,24,07,50,3.80
2018,10,24,07,51,3.80
2018,10,24,07,52,3.90
2018,10,24,07,53,4.00
2018,10,24,07,54,4.20
2018,10,24,07,55,4.40
2018,10,24,07,56,4.60
2018,10,24,07,57,4.80
2018,10,24,07,58,4.80
2018,10,24,07,59,4.80
2018,10,24,08,00,4.80
2018,10,24,08,01,4.70
2018,10,24,08,02,4.70
2018,10,24,08,03,4.70
2018,10,24,08,04,4.70
2018,10,24,08,05,4.80
2018,10,24,08,06,4.90
2018,10,24,08,07,5.00
2018,10,24,08,08,5.00
2018,10,24,08,09,5.20
2018,10,24,08,10,5.40
2018,10,24,08,11,5.50
2018,10,24,08,12,5.50
2018,10,24,08,13,5.50
2018,10,24,08,14,5.40
2018,10,24,08,15,5.10
2018,10,24,08,16,5.00
2018,10,24,08,17,4.80
2018,10,24,08,18,4.80
2018,10,24,08,19,4.80
2018,10,24,08,20,4.70
2018,10,24,08,21,4.60
2018,10,24,08,22,4.50
2018,10,24,08,23,4.50
2018,10,24,08,24,4.50
2018,10,24,08,25,4.50
2018,10,24,08,26,4.60
2018,10,24,08,27,4.50
2018,10,24,08,28,4.40
2018,10,24,08,29,4.30
2018,10,24,08,30,4.20
2018,10,24,08,31,4.20
2018,10,24,08,32,4.20
2018,10,24,08,33,4.30
2018,10,24,08,34,4.30
2018,10,24,08,35,4.30
2018,10,24,08,36,4.30
2018,10,24,08,37,4.20
2018,10,24,08,38,4.20
2018,10,24,08,39,4.20
2018,10,24,08,40,4.30
2018,10,24,08,41,4.40
2018,10,24,08,42,4.50
2018,10,24,08,43,5.00
2018,10,24,08,44,5.10
2018,10,24,08,45,5.20
2018,10,24,08,46,5.30
2018,10,24,08,47,5.30
2018,10,24,08,48,5.80
2018,10,24,08,49,5.90
2018,10,24,08,50,6.00
2018,10,24,08,51,6.00
2018,10,24,08,52,6.10
2018,10,24,08,53,6.20
2018,10,24,08,54,6.30
2018,10,24,08,55,6.30
2018,10,24,08,56,6.30
2018,10,24,08,57,6.30
2018,10,24,08,58,6.20
2018,10,24,08,59,6.20
2018,10,24,09,00,6.20
2018,10,24,09,01,6.20
2018,10,24,09,02,6.10
2018,10,24,09,03,6.00
2018,10,24,09,04,6.00
2018,10,24,09,05,6.00
2018,10,24,09,06,5.90
2018,10,24,09,07,5.90
2018,10,24,09,08,5.90
2018,10,24,09,09,5.90
2018,10,24,09,10,5.90
2018,10,24,09,11,6.00
2018,10,24,09,12,6.10
2018,10,24,09,13,6.20
2018,10,24,09,14,6.20
2018,10,24,09,15,6.30
2018,10,24,09,16,6.30
2018,10,24,09,17,6.50
2018,10,24,09,18,6.50
2018,10,24,09,19,6.60
2018,10,24,09,20,6.60
2018,10,24,09,21,6.70
2018,10,24,09,22,6.80
2018,10,24,09,23,6.80
2018,10,24,09,24,6.90
2018,10,24,09,25,6.90
2018,10,24,09,26,7.00
2018,10,24,09,27,7.00
2018,10,24,09,28,7.10
2018,10,24,09,29,7.10
2018,10,24,09,30,7.10
2018,10,24,09,31,7.30
2018,10,24,09,32,7.30
2018,10,24,09,33,7.50
2018,10,24,09,34,7.50
2018,10,24,09,35,7.60
2018,10,24,09,36,7.70
2018,10,24,09,37,7.80
2018,10,24,09,38,7.80
2018,10,24,09,39,7.90
2018,10,24,09,40,8.00
2018,10,24,09,41,8.10
2018,10,24,09,42,8.20
2018,10,24,09,43,8.30
2018,10,24,09,44,8.30
2018,10,24,09,45,8.40
2018,10,24,09,46,8.50
2018,10,24,09,47,8.60
2018,10,24,09,48,8.60
2018,10,24,09,49,8.60
2018,10,24,09,50,8.90
2018,10,24,09,51,9.00
2018,10,24,09,52,9.20
2018,10,24,09,53,9.20
2018,10,24,09,54,9.40
2018,10,24,09,55,9.50
2018,10,24,09,56,9.60
2018,10,24,09,57,9.70
2018,10,24,09,58,9.70
2018,10,24,09,59,9.80
2018,10,24,10,00,10.00
2018,10,24,10,01,10.00
2018,10,24,10,02,10.10
2018,10,24,10,03,10.10
2018,10,24,10,04,10.20
2018,10,24,10,05,10.20
2018,10,24,10,06,10.20
2018,10,24,10,07,10.20
2018,10,24,10,08,10.30
2018,10,24,10,09,10.30
2018,10,24,10,10,10.40
2018,10,24,10,11,10.50
2018,10,24,10,12,10.60
2018,10,24,10,13,10.60
2018,10,24,10,14,10.70
2018,10,24,10,15,10.70
2018,10,24,10,16,10.70
2018,10,24,10,17,10.70
2018,10,24,10,18,10.70
2018,10,24,10,19,11.00
2018,10,24,10,20,11.00
2018,10,24,10,21,11.10
2018,10,24,10,22,11.10
2018,10,24,10,23,11.10
2018,10,24,10,24,11.20
2018,10,24,10,25,11.20
2018,10,24,10,26,11.30
2018,10,24,10,27,11.30
2018,10,24,10,28,11.30
2018,10,24,10,29,11.40
2018,10,24,10,30,11.40
2018,10,24,10,31,11.40
2018,10,24,10,32,11.40
2018,10,24,10,33,11.50
2018,10,24,10,34,11.60
2018,10,24,10,35,11.60
2018,10,24,10,36,11.70
2018,10,24,10,37,11.70
2018,10,24,10,38,11.70
2018,10,24,10,39,11.80
2018,10,24,10,40,11.80
2018,10,24,10,41,11.80
2018,10,24,10,42,11.80
2018,10,24,10,43,11.80
2018,10,24,10,44,11.80
2018,10,24,10,45,11.80
2018,10,24,10,46,11.80
2018,10,24,10,47,11.80
2018,10,24,10,48,11.80
2018,10,24,10,49,11.80
2018,10,24,10,50,11.80
2018,10,24,10,51,11.80
2018,10,24,10,52,11.80
2018,10,24,10,53,11.80
2018,10,24,10,54,11.80
2018,10,24,10,55,11.90
2018,10,24,10,56,11.90
2018,10,24,10,57,11.90
2018,10,24,10,58,11.90
2018,10,24,10,59,11.90
2018,10,24,11,00,11.90
2018,10,24,11,01,11.90
2018,10,24,11,02,12.00
2018,10,24,11,03,12.00
2018,10,24,11,04,12.00
2018,10,24,11,05,12.00
2018,10,24,11,06,12.00
2018,10,24,11,07,12.00
2018,10,24,11,08,12.00
2018,10,24,11,09,12.10
2018,10,24,11,10,12.10
2018,10,24,11,11,12.10
2018,10,24,11,12,12.10
2018,10,24,11,13,12.10
2018,10,24,11,14,12.10
2018,10,24,11,15,12.20
2018,10,24,11,16,12.20
2018,10,24,11,17,12.20
2018,10,24,11,18,12.20
2018,10,24,11,19,12.30
2018,10,24,11,20,12.30
2018,10,24,11,21,12.30
2018,10,24,11,22,12.30
2018,10,24,11,23,12.30
2018,10,24,11,24,12.20
2018,10,24,11,25,12.20
2018,10,24,11,26,12.10
2018,10,24,11,27,12.10
2018,10,24,11,28,12.20
2018,10,24,11,29,12.20
2018,10,24,11,30,12.20
2018,10,24,11,31,12.20
2018,10,24,11,32,12.20
2018,10,24,11,33,12.20
2018,10,24,11,34,12.20
2018,10,24,11,35,12.20
2018,10,24,11,36,12.30
2018,10,24,11,37,12.30
2018,10,24,11,38,12.20
2018,10,24,11,39,12.20
2018,10,24,11,40,12.20
2018,10,24,11,41,12.30
2018,10,24,11,42,12.30
2018,10,24,11,43,12.30
2018,10,24,11,44,12.30
2018,10,24,11,45,12.30
2018,10,24,11,46,12.40
2018,10,24,11,47,12.40
2018,10,24,11,48,12.50
2018,10,24,11,49,12.50
2018,10,24,11,50,12.60
2018,10,24,11,51,12.60
2018,10,24,11,52,12.60
2018,10,24,11,53,12.60
2018,10,24,11,54,12.70
2018,10,24,11,55,12.70
2018,10,24,11,56,12.70
2018,10,24,11,57,12.60
2018,10,24,11,58,12.70
2018,10,24,11,59,12.70
2018,10,24,12,00,12.70
2018,10,24,12,01,12.70
2018,10,24,12,02,12.70
2018,10,24,12,03,12.80
2018,10,24,12,04,12.80
2018,10,24,12,05,12.80
2018,10,24,12,06,12.80
2018,10,24,12,07,12.70
2018,10,24,12,08,12.70
2018,10,24,12,09,12.60
2018,10,24,12,10,12.60
2018,10,24,12,11,12.70
2018,10,24,12,12,12.70
2018,10,24,12,13,12.70
2018,10,24,12,14,12.70
2018,10,24,12,15,12.70
2018,10,24,12,16,12.70
2018,10,24,12,17,12.70
2018,10,24,12,18,12.70
2018,10,24,12,19,12.80
2018,10,24,12,20,12.80
2018,10,24,12,21,12.80
2018,10,24,12,22,12.80
2018,10,24,12,23,12.80
2018,10,24,12,24,12.80
2018,10,24,12,25,12.80
2018,10,24,12,26,12.80
2018,10,24,12,27,12.90
2018,10,24,12,28,12.90
2018,10,24,12,29,12.90
2018,10,24,12,30,13.00
2018,10,24,12,31,13.00
2018,10,24,12,32,13.10
2018,10,24,12,33,13.10
2018,10,24,12,34,13.10
2018,10,24,12,35,13.10
2018,10,24,12,36,13.20
2018,10,24,12,37,13.20
2018,10,24,12,38,13.20
2018,10,24,12,39,13.20
2018,10,24,12,40,13.20
2018,10,24,12,41,13.30
2018,10,24,12,42,13.30
2018,10,24,12,43,13.20
2018,10,24,12,44,13.20
2018,10,24,12,45,13.20
2018,10,24,12,46,13.20
2018,10,24,12,47,13.20
2018,10,24,12,48,13.10
2018,10,24,12,49,13.10
2018,10,24,12,50,13.10
2018,10,24,12,51,13.20
2018,10,24,12,52,13.20
2018,10,24,12,53,13.20
2018,10,24,12,54,13.20
2018,10,24,12,55,13.10
2018,10,24,12,56,13.10
2018,10,24,12,57,13.10
2018,10,24,12,58,13.10
2018,10,24,12,59,13.10
2018,10,24,13,00,13.10
2018,10,24,13,01,13.00
2018,10,24,13,02,12.90
2018,10,24,13,03,12.90
2018,10,24,13,04,12.90
2018,10,24,13,05,12.90
2018,10,24,13,06,12.90
2018,10,24,13,07,12.90
2018,10,24,13,08,12.90
2018,10,24,13,09,12.90
2018,10,24,13,10,12.90
2018,10,24,13,11,12.80
2018,10,24,13,12,12.80
2018,10,24,13,13,12.80
2018,10,24,13,14,12.80
2018,10,24,13,15,12.80
2018,10,24,13,16,12.80
2018,10,24,13,17,12.80
2018,10,24,13,18,12.80
2018,10,24,13,19,12.80
2018,10,24,13,20,12.80
2018,10,24,13,21,12.90
2018,10,24,13,22,12.90
2018,10,24,13,23,12.90
2018,10,24,13,24,13.00
2018,10,24,13,25,13.00
2018,10,24,13,26,13.10
2018,10,24,13,27,13.10
2018,10,24,13,28,13.10
2018,10,24,13,29,13.10
2018,10,24,13,30,13.10
2018,10,24,13,31,13.00
2018,10,24,13,32,13.00
2018,10,24,13,33,13.00
2018,10,24,13,34,12.90
2018,10,24,13,35,12.90
2018,10,24,13,36,12.90
2018,10,24,13,37,12.90
2018,10,24,13,38,12.80
2018,10,24,13,39,12.80
2018,10,24,13,40,12.80
2018,10,24,13,41,12.80
2018,10,24,13,42,12.80
2018,10,24,13,43,12.80
2018,10,24,13,44,12.80
2018,10,24,13,45,12.80
2018,10,24,13,46,12.80
2018,10,24,13,47,12.80
2018,10,24,13,48,12.80
2018,10,24,13,49,12.80
2018,10,24,13,50,12.80
2018,10,24,13,51,12.80
2018,10,24,13,52,12.80
2018,10,24,13,53,12.80
2018,10,24,13,54,12.80
2018,10,24,13,55,12.80
2018,10,24,13,56,12.80
2018,10,24,13,57,12.80
2018,10,24,13,58,12.80
2018,10,24,13,59,12.90
2018,10,24,14,00,12.90
2018,10,24,14,01,12.90
2018,10,24,14,02,13.00
2018,10,24,14,03,13.00
2018,10,24,14,04,13.10
2018,10,24,14,05,13.10
2018,10,24,14,06,13.20
2018,10,24,14,07,13.20
2018,10,24,14,08,13.20
2018,10,24,14,09,13.20
2018,10,24,14,10,13.30
2018,10,24,14,11,13.30
2018,10,24,14,12,13.30
2018,10,24,14,13,13.30
2018,10,24,14,14,13.40
2018,10,24,14,15,13.40
2018,10,24,14,16,13.50
2018,10,24,14,17,13.60
2018,10,24,14,18,13.60
2018,10,24,14,19,13.60
2018,10,24,14,20,13.70
2018,10,24,14,21,13.70
2018,10,24,14,22,13.70
2018,10,24,14,23,13.80
2018,10,24,14,24,13.80
2018,10,24,14,25,13.80
2018,10,24,14,26,13.80
2018,10,24,14,27,13.90
2018,10,24,14,28,13.90
2018,10,24,14,29,13.90
2018,10,24,14,30,13.90
2018,10,24,14,31,13.90
2018,10,24,14,32,13.90
2018,10,24,14,33,13.90
2018,10,24,14,34,13.90
2018,10,24,14,35,13.90
2018,10,24,14,36,13.90
2018,10,24,14,37,13.90
2018,10,24,14,38,13.90
2018,10,24,14,39,13.90
2018,10,24,14,40,13.90
2018,10,24,14,41,13.90
2018,10,24,14,42,13.90
2018,10,24,14,43,13.80
2018,10,24,14,44,13.80
2018,10,24,14,45,13.80
2018,10,24,14,46,13.80
2018,10,24,14,47,13.80
2018,10,24,14,48,13.80
2018,10,24,14,49,13.80
2018,10,24,14,50,13.80
2018,10,24,14,51,13.80
2018,10,24,14,52,13.80
2018,10,24,14,53,13.80
2018,10,24,14,54,13.80
2018,10,24,14,55,13.70
2018,10,24,14,56,13.70
2018,10,24,14,57,13.70
2018,10,24,14,58,13.70
2018,10,24,14,59,13.70
2018,10,24,15,00,13.70
2018,10,24,15,01,13.70
2018,10,24,15,02,13.70
2018,10,24,15,03,13.70
2018,10,24,15,04,13.80
2018,10,24,15,05,13.80
2018,10,24,15,06,13.80
2018,10,24,15,07,13.80
2018,10,24,15,08,13.80
2018,10,24,15,09,13.80
2018,10,24,15,10,13.80
2018,10,24,15,11,13.80
2018,10,24,15,12,13.80
2018,10,24,15,13,13.80
2018,10,24,15,14,13.80
2018,10,24,15,15,13.80
2018,10,24,15,16,13.80
2018,10,24,15,17,13.80
2018,10,24,15,18,13.80
2018,10,24,15,19,13.80
2018,10,24,15,20,13.80
2018,10,24,15,21,13.80
2018,10,24,15,22,13.80
2018,10,24,15,23,13.80
2018,10,24,15,24,13.70
2018,10,24,15,25,13.70
2018,10,24,15,26,13.70
2018,10,24,15,27,13.70
2018,10,24,15,28,13.70
2018,10,24,15,29,13.70
2018,10,24,15,30,13.60
2018,10,24,15,31,13.60
2018,10,24,15,32,13.60
2018,10,24,15,33,13.60
2018,10,24,15,34,13.60
2018,10,24,15,35,13.60
2018,10,24,15,36,13.60
2018,10,24,15,37,13.60
2018,10,24,15,38,13.60
2018,10,24,15,39,13.60
2018,10,24,15,40,13.70
2018,10,24,15,41,13.70
2018,10,24,15,42,13.70
2018,10,24,15,43,13.70
2018,10,24,15,44,13.80
2018,10,24,15,45,13.80
2018,10,24,15,46,13.80
2018,10,24,15,47,13.80
2018,10,24,15,48,13.90
2018,10,24,15,49,13.90
2018,10,24,15,50,13.90
2018,10,24,15,51,13.90
2018,10,24,15,52,13.90
2018,10,24,15,53,13.90
2018,10,24,15,54,13.90
2018,10,24,15,55,13.90
2018,10,24,15,56,13.90
2018,10,24,15,57,13.80
2018,10,24,15,58,13.80
2018,10,24,15,59,13.80
2018,10,24,16,00,13.80
2018,10,24,16,01,13.80
2018,10,24,16,02,13.80
2018,10,24,16,03,13.80
2018,10,24,16,04,13.80
2018,10,24,16,05,13.80
2018,10,24,16,06,13.70
2018,10,24,16,07,13.70
2018,10,24,16,08,13.70
2018,10,24,16,09,13.70
2018,10,24,16,10,13.70
2018,10,24,16,11,13.70
2018,10,24,16,12,13.70
2018,10,24,16,13,13.70
2018,10,24,16,14,13.70
2018,10,24,16,15,13.60
2018,10,24,16,16,13.60
2018,10,24,16,17,13.60
2018,10,24,16,18,13.60
2018,10,24,16,19,13.60
2018,10,24,16,20,13.60
2018,10,24,16,21,13.60
2018,10,24,16,22,13.60
2018,10,24,16,23,13.60
2018,10,24,16,24,13.60
2018,10,24,16,25,13.60
2018,10,24,16,26,13.50
2018,10,24,16,27,13.50
2018,10,24,16,28,13.50
2018,10,24,16,29,13.50
2018,10,24,16,30,13.50
2018,10,24,16,31,13.50
2018,10,24,16,32,13.50
2018,10,24,16,33,13.40
2018,10,24,16,34,13.40
2018,10,24,16,35,13.40
2018,10,24,16,36,13.40
2018,10,24,16,37,13.40
2018,10,24,16,38,13.40
2018,10,24,16,39,13.40
2018,10,24,16,40,13.30
2018,10,24,16,41,13.30
2018,10,24,16,42,13.30
2018,10,24,16,43,13.30
2018,10,24,16,44,13.30
2018,10,24,16,45,13.30
2018,10,24,16,46,13.30
2018,10,24,16,47,13.20
2018,10,24,16,48,13.20
2018,10,24,16,49,13.20
2018,10,24,16,50,13.20
2018,10,24,16,51,13.20
2018,10,24,16,52,13.20
2018,10,24,16,53,13.10
2018,10,24,16,54,13.10
2018,10,24,16,55,13.10
2018,10,24,16,56,13.10
2018,10,24,16,57,13.10
2018,10,24,16,58,13.10
2018,10,24,16,59,13.10
2018,10,24,17,00,13.10
2018,10,24,17,01,13.10
2018,10,24,17,02,13.10
2018,10,24,17,03,13.00
2018,10,24,17,04,13.00
2018,10,24,17,05,13.00
2018,10,24,17,06,13.00
2018,10,24,17,07,13.00
2018,10,24,17,08,13.00
2018,10,24,17,09,13.00
2018,10,24,17,10,13.00
2018,10,24,17,11,12.90
2018,10,24,17,12,12.90
2018,10,24,17,13,12.90
2018,10,24,17,14,12.90
2018,10,24,17,15,12.90
2018,10,24,17,16,12.90
2018,10,24,17,17,12.90
2018,10,24,17,18,12.90
2018,10,24,17,19,12.90
2018,10,24,17,20,12.90
2018,10,24,17,21,12.90
2018,10,24,17,22,12.90
2018,10,24,17,23,12.90
2018,10,24,17,24,12.90
2018,10,24,17,25,12.90
2018,10,24,17,26,12.90
2018,10,24,17,27,12.90
2018,10,24,17,28,12.90
2018,10,24,17,29,12.90
2018,10,24,17,30,12.90
2018,10,24,17,31,12.90
2018,10,24,17,32,12.90
2018,10,24,17,33,12.90
2018,10,24,17,34,12.90
2018,10,24,17,35,12.90
2018,10,24,17,36,12.90
2018,10,24,17,37,12.90
2018,10,24,17,38,12.90
2018,10,24,17,39,12.90
2018,10,24,17,40,12.90
2018,10,24,17,41,12.90
2018,10,24,17,42,12.90
2018,10,24,17,43,12.90
2018,10,24,17,44,13.00